Tucson, AZ

9:16 PM MST on July 25, 2017 (GMT -0700)
Tucson International

Weather History for KTUS - December, 2013

Change the Weather History Date:

Wednesday, December 4, 2013

  Actual Average Record
Temperature  
Mean Temperature 57 °F 53 °F  
Max Temperature 68 °F 67 °F 85 °F (1895)
Min Temperature 46 °F 40 °F 21 °F (1909)
Degree Days  
Heating Degree Days 8 12  
Month to date heating degree days 24 45  
Since 1 July heating degree days 130 251  
Cooling Degree Days 0 0  
Month to date cooling degree days 0 0  
Year to date cooling degree days 3653 3146  
Growing Degree Days 7 (Base 50)    
Moisture  
Dew Point 41 °F    
Average Humidity 50    
Maximum Humidity 74    
Minimum Humidity 26    
Precipitation  
Precipitation 0.04 in 0.03 in 1.16 in (1992)
Month to date precipitation 0.04 0.11  
Year to date precipitation 7.74 10.77  
Sea Level Pressure  
Sea Level Pressure 29.79 in    
Wind  
Wind Speed 12 mph (West)    
Max Wind Speed 24 mph    
Max Gust Speed 31 mph    
Visibility 10 miles    
Events Rain    
T = Trace of Precipitation, MM = Missing Value Source: NWS Daily Summary

Daily Weather History Graph

Daily Weather History Graph

Search for Another Location

Airport or City:

Trip Planner

Search our weather history database for the weather conditions in past years. The results will help you decide how hot, cold, wet, or windy it might be!

Date:

Astronomy

Dec. 04, 2013 Rise Set
Actual Time 7:09 AM MST 5:18 PM MST
Civil Twilight 6:42 AM MST 5:45 PM MST
Nautical Twilight 6:12 AM MST 6:15 PM MST
Astronomical Twilight 5:42 AM MST 6:45 PM MST
Moon 8:43 AM MST (12/4) 7:30 PM MST (12/4)
Length of Visible Light 11h 03m
Length of Day
10h 09m
Waxing Crescent, 5% of the Moon is Illuminated
Dec 4
Waxing Crescent
Dec 9
First Quarter
Dec 17
Full
Dec 25
Last Quarter
Jan 1
New

Hourly Weather History & Observations

Time (MST) Temp. Dew Point Humidity Pressure Visibility Wind Dir Wind Speed Gust Speed Precip Events Conditions
12:53 AM 62.1 °F 39.0 °F 43% 29.70 in 10.0 mi SSW 13.8 mph - N/A   Clear
1:53 AM 60.1 °F 39.0 °F 46% 29.70 in 10.0 mi NE 3.5 mph - N/A   Clear
2:53 AM 62.1 °F 41.0 °F 46% 29.68 in 10.0 mi South 9.2 mph 20.7 mph N/A   Clear
3:53 AM 60.1 °F 42.1 °F 51% 29.68 in 10.0 mi SSW 9.2 mph - N/A   Clear
4:53 AM 61.0 °F 42.1 °F 50% 29.69 in 10.0 mi SSW 15.0 mph - N/A   Clear
5:53 AM 60.1 °F 44.1 °F 55% 29.71 in 10.0 mi SW 13.8 mph - N/A   Clear
6:53 AM 59.0 °F 46.0 °F 62% 29.73 in 10.0 mi SW 11.5 mph - N/A   Clear
7:53 AM 60.1 °F 45.0 °F 57% 29.75 in 10.0 mi SW 13.8 mph 23.0 mph N/A   Scattered Clouds
8:53 AM 62.1 °F 45.0 °F 53% 29.77 in 10.0 mi SW 15.0 mph - N/A   Partly Cloudy
9:53 AM 64.0 °F 41.0 °F 43% 29.78 in 10.0 mi SSW 19.6 mph 28.8 mph N/A   Clear
10:53 AM 66.0 °F 35.1 °F 32% 29.78 in 10.0 mi SSW 16.1 mph 23.0 mph N/A   Clear
11:53 AM 66.0 °F 33.1 °F 29% 29.76 in 10.0 mi SW 13.8 mph - N/A   Clear
12:53 PM 66.9 °F 30.9 °F 26% 29.73 in 10.0 mi West 20.7 mph 29.9 mph N/A   Clear
1:53 PM 66.0 °F 35.1 °F 32% 29.75 in 10.0 mi SW 19.6 mph - N/A   Partly Cloudy
2:53 PM 64.9 °F 35.1 °F 33% 29.74 in 10.0 mi WSW 17.3 mph 24.2 mph N/A   Clear
3:53 PM 63.0 °F 37.9 °F 40% 29.77 in 10.0 mi SW 9.2 mph - N/A   Partly Cloudy
4:53 PM 57.0 °F 42.1 °F 57% 29.80 in 10.0 mi NNW 10.4 mph - N/A   Mostly Cloudy
5:53 PM 54.0 °F 42.1 °F 64% 29.81 in 10.0 mi NNW 10.4 mph - N/A   Scattered Clouds
6:53 PM 53.1 °F 42.1 °F 66% 29.84 in 10.0 mi NW 6.9 mph - N/A   Scattered Clouds
7:53 PM 52.0 °F 41.0 °F 66% 29.85 in 10.0 mi West 6.9 mph - N/A   Overcast
8:53 PM 50.0 °F 42.1 °F 74% 29.87 in 10.0 mi NNW 9.2 mph - N/A   Mostly Cloudy
9:53 PM 48.0 °F 43.0 °F 83% 29.88 in 10.0 mi NW 8.1 mph - 0.00 in Rain Light Rain
10:19 PM 48.0 °F 43.0 °F 83% 29.94 in 10.0 mi North 3.5 mph - 0.00 in   Overcast
10:28 PM 48.0 °F 44.1 °F 86% 29.94 in 10.0 mi North 4.6 mph - 0.00 in   Overcast
10:35 PM 48.0 °F 43.0 °F 83% 29.94 in 10.0 mi North 4.6 mph - 0.00 in Rain Light Rain
10:53 PM 46.9 °F 43.0 °F 86% 29.88 in 10.0 mi NNW 5.8 mph - 0.00 in   Overcast
11:18 PM 46.9 °F 44.1 °F 90% 29.94 in 7.0 mi NNW 4.6 mph - 0.00 in Rain Light Rain
11:53 PM 46.0 °F 44.1 °F 93% 29.88 in 4.0 mi Calm Calm - 0.03 in Rain Light Rain